^^
Datos históricos de la estación: Murcia-Puente Tocinos
 
Diario Informe para Septiembre 22, 2017 Unidades:  Métrico    Inglés   Ambas
« Anterior Día
Siguiente Día »
Diario Semanal Mensual Anual Configurable
  Actual: Máximo: Mínimo: Media:
Temperatura: 25.3 °C 25.3 °C 20.0 °C 21.5 °C
Punto de rocio: 16.4 °C 18.0 °C 16.2 °C 17.1 °C
Humedad: 58% 82% 58% 76%
Velocidad viento: 13.0km/h 13.7km/h 2.3km/h 5.8km/h
Racha viento: 20.4km/h 27.8km/h - -
VientoNE - - Sur
Presión: 1016.8 hPa 1017.2 hPa 1015.1 hPa -
Precipitación: 0.0 mm      
Historical Graphs
 
 
Tabla de datos para Septiembre 22, 2017
Hora Temperatura Punto de rocio Presión Viento Velocidad viento Racha viento Humedad Intensidad lluvia(por hora) Nubes
00:02 21.8 °C 17.8 °C 1015.5 hPa NE 2.3 km/h 3.7 km/h 78% 0.0 mm CLR
00:07 21.8 °C 17.8 °C 1015.5 hPa NE 2.3 km/h   78% 0.0 mm CLR
00:12 21.8 °C 17.8 °C 1015.5 hPa NE 2.3 km/h   78% 0.0 mm CLR
00:17 21.8 °C 17.8 °C 1015.5 hPa NE 2.3 km/h   78% 0.0 mm CLR
00:22 21.8 °C 17.8 °C 1015.5 hPa NE 2.3 km/h   78% 0.0 mm CLR
00:27 21.8 °C 17.8 °C 1015.5 hPa NE 2.3 km/h   78% 0.0 mm CLR
00:32 21.3 °C 17.7 °C 1015.5 hPa NNW 2.9 km/h 3.9 km/h 80% 0.0 mm CLR
00:37 21.2 °C 17.6 °C 1015.5 hPa NW 2.9 km/h 3.9 km/h 80% 0.0 mm CLR
00:42 21.2 °C 17.6 °C 1015.5 hPa NW 2.9 km/h 3.7 km/h 80% 0.0 mm CLR
00:47 21.2 °C 17.6 °C 1015.5 hPa WNW 2.9 km/h 5.6 km/h 80% 0.0 mm CLR
00:52 21.2 °C 17.6 °C 1015.5 hPa WNW 3.2 km/h 3.7 km/h 80% 0.0 mm CLR
00:57 21.2 °C 17.6 °C 1015.5 hPa WNW 3.2 km/h 3.7 km/h 80% 0.0 mm CLR
01:02 21.1 °C 17.5 °C 1015.5 hPa WNW 2.9 km/h 6.4 km/h 80% 0.0 mm CLR
01:07 21.1 °C 17.7 °C 1015.5 hPa WNW 2.9 km/h 7.4 km/h 81% 0.0 mm CLR
01:12 20.9 °C 17.5 °C 1015.5 hPa WNW 3.9 km/h 7.4 km/h 81% 0.0 mm CLR
01:17 20.9 °C 17.5 °C 1015.5 hPa WNW 3.9 km/h 7.4 km/h 81% 0.0 mm CLR
01:22 20.8 °C 17.4 °C 1015.5 hPa West 5.0 km/h 7.4 km/h 81% 0.0 mm CLR
01:27 20.8 °C 17.4 °C 1015.5 hPa West 5.0 km/h 5.6 km/h 81% 0.0 mm CLR
01:32 20.8 °C 17.4 °C 1015.5 hPa West 3.9 km/h 7.4 km/h 81% 0.0 mm CLR
01:37 20.8 °C 17.4 °C 1015.5 hPa West 3.9 km/h 7.4 km/h 81% 0.0 mm CLR
01:42 20.8 °C 17.4 °C 1015.5 hPa WSW 3.9 km/h 5.6 km/h 81% 0.0 mm CLR
01:47 20.8 °C 17.4 °C 1015.5 hPa WSW 3.9 km/h 5.6 km/h 81% 0.0 mm CLR
01:52 20.9 °C 17.5 °C 1015.5 hPa SW 3.9 km/h 5.6 km/h 81% 0.0 mm CLR
01:57 20.9 °C 17.5 °C 1015.5 hPa WSW 3.9 km/h 7.4 km/h 81% 0.0 mm CLR
02:02 20.9 °C 17.5 °C 1015.8 hPa WSW 3.9 km/h 3.9 km/h 81% 0.0 mm CLR
02:07 20.9 °C 17.5 °C 1015.8 hPa South 3.9 km/h 5.6 km/h 81% 0.0 mm CLR
02:12 21.0 °C 17.6 °C 1015.8 hPa South 3.2 km/h 5.0 km/h 81% 0.0 mm CLR
02:17 21.0 °C 17.6 °C 1015.5 hPa SSE 3.2 km/h 5.6 km/h 81% 0.0 mm CLR
02:22 21.1 °C 17.5 °C 1015.5 hPa SE 3.2 km/h 3.9 km/h 80% 0.0 mm CLR
02:27 21.2 °C 17.6 °C 1015.5 hPa SE 3.2 km/h 3.7 km/h 80% 0.0 mm CLR
02:32 21.2 °C 17.4 °C 1015.8 hPa SE 3.2 km/h 7.4 km/h 79% 0.0 mm CLR
02:37 21.1 °C 17.3 °C 1015.8 hPa SSE 3.2 km/h 7.4 km/h 79% 0.0 mm CLR
02:42 21.1 °C 17.3 °C 1015.8 hPa South 3.9 km/h 7.4 km/h 79% 0.0 mm CLR
02:47 21.1 °C 17.5 °C 1015.5 hPa SSE 3.9 km/h 5.6 km/h 80% 0.0 mm CLR
02:52 21.1 °C 17.5 °C 1015.5 hPa SE 4.7 km/h 7.4 km/h 80% 0.0 mm CLR
02:57 21.1 °C 17.5 °C 1015.5 hPa SSE 4.7 km/h 7.4 km/h 80% 0.0 mm CLR
03:02 21.1 °C 17.5 °C 1015.5 hPa South 3.9 km/h 9.3 km/h 80% 0.0 mm CLR
03:07 21.1 °C 17.5 °C 1015.5 hPa SSW 3.9 km/h 5.6 km/h 80% 0.0 mm CLR
03:12 21.1 °C 17.5 °C 1015.5 hPa SSW 5.0 km/h 5.0 km/h 80% 0.0 mm CLR
03:17 21.2 °C 17.6 °C 1015.5 hPa SSW 5.0 km/h   80% 0.0 mm CLR
03:22 21.1 °C 17.5 °C 1015.5 hPa SSW 2.3 km/h 2.3 km/h 80% 0.0 mm CLR
03:27 21.1 °C 17.5 °C 1015.5 hPa South 2.3 km/h 5.6 km/h 80% 0.0 mm CLR
03:32 21.1 °C 17.5 °C 1015.5 hPa SSE 2.9 km/h 7.4 km/h 80% 0.0 mm CLR
03:37 21.0 °C 17.4 °C 1015.5 hPa South 2.9 km/h 7.4 km/h 80% 0.0 mm CLR
03:42 20.9 °C 17.3 °C 1015.5 hPa South 4.7 km/h 5.6 km/h 80% 0.0 mm CLR
03:47 20.8 °C 17.2 °C 1015.5 hPa SSW 3.9 km/h 7.4 km/h 80% 0.0 mm CLR
03:52 20.8 °C 17.2 °C 1015.5 hPa SSW 3.9 km/h 5.6 km/h 80% 0.0 mm CLR
03:57 20.8 °C 17.2 °C 1015.5 hPa SSW 4.7 km/h 7.4 km/h 80% 0.0 mm CLR
04:02 20.7 °C 17.1 °C 1015.5 hPa South 4.7 km/h 7.4 km/h 80% 0.0 mm CLR
04:07 20.7 °C 17.1 °C 1015.5 hPa SSE 5.8 km/h 9.3 km/h 80% 0.0 mm CLR
04:17 20.6 °C 17.2 °C 1015.5 hPa South 5.8 km/h 11.1 km/h 81% 0.0 mm CLR
04:22 20.6 °C 17.2 °C 1015.5 hPa SSW 6.9 km/h 9.3 km/h 81% 0.0 mm CLR
04:27 20.6 °C 17.2 °C 1015.5 hPa SW 6.4 km/h 7.4 km/h 81% 0.0 mm CLR
04:32 20.6 °C 17.2 °C 1015.5 hPa West 6.4 km/h 7.6 km/h 81% 0.0 mm CLR
04:37 20.6 °C 17.2 °C 1015.5 hPa WSW 4.7 km/h 5.6 km/h 81% 0.0 mm FEW
04:42 20.6 °C 17.2 °C 1015.5 hPa WSW 4.7 km/h 7.4 km/h 81% 0.0 mm FEW
04:47 20.5 °C 17.1 °C 1015.1 hPa WSW 3.2 km/h 3.9 km/h 81% 0.0 mm CLR
04:52 20.5 °C 17.1 °C 1015.1 hPa WSW 3.2 km/h 3.7 km/h 81% 0.0 mm FEW
04:55 20.5 °C 17.1 °C 1015.1 hPa WSW 3.2 km/h 3.7 km/h 81% 0.0 mm FEW
05:00 20.4 °C 17.1 °C 1015.1 hPa WSW 2.3 km/h 3.7 km/h 81% 0.0 mm CLR
05:05 20.4 °C 17.1 °C 1015.5 hPa WSW 2.3 km/h 3.7 km/h 81% 0.0 mm CLR
05:10 20.4 °C 17.1 °C 1015.5 hPa WSW 2.9 km/h 3.7 km/h 81% 0.0 mm FEW
05:15 20.4 °C 17.1 °C 1015.5 hPa WSW 2.9 km/h   81% 0.0 mm CLR
05:20 20.4 °C 17.1 °C 1015.5 hPa South 2.3 km/h 7.4 km/h 81% 0.0 mm FEW
05:25 20.4 °C 17.1 °C 1015.5 hPa SSE 2.3 km/h 7.4 km/h 81% 0.0 mm CLR
05:30 20.4 °C 17.1 °C 1015.5 hPa South 5.0 km/h 11.1 km/h 81% 0.0 mm FEW
05:35 20.4 °C 17.1 °C 1015.5 hPa South 5.0 km/h 11.1 km/h 81% 0.0 mm CLR
05:40 20.4 °C 17.1 °C 1015.5 hPa SE 6.9 km/h 7.4 km/h 81% 0.0 mm FEW
05:45 20.4 °C 17.1 °C 1015.5 hPa South 6.9 km/h 9.3 km/h 81% 0.0 mm CLR
05:50 20.4 °C 17.1 °C 1015.5 hPa South 6.4 km/h 9.3 km/h 81% 0.0 mm FEW
05:55 20.4 °C 17.1 °C 1015.5 hPa South 6.4 km/h 7.4 km/h 81% 0.0 mm CLR
06:00 20.4 °C 17.1 °C 1015.5 hPa South 5.8 km/h 9.3 km/h 81% 0.0 mm CLR
06:05 20.3 °C 16.9 °C 1015.5 hPa SSW 5.8 km/h 11.1 km/h 81% 0.0 mm CLR
06:10 20.3 °C 16.9 °C 1015.5 hPa SSW 6.9 km/h 9.3 km/h 81% 0.0 mm FEW
06:15 20.3 °C 16.9 °C 1015.5 hPa SSW 6.9 km/h 9.3 km/h 81% 0.0 mm CLR
06:20 20.2 °C 16.8 °C 1015.5 hPa South 6.4 km/h 7.4 km/h 81% 0.0 mm FEW
06:25 20.2 °C 16.8 °C 1015.5 hPa SSW 6.4 km/h 9.3 km/h 81% 0.0 mm CLR
06:30 20.2 °C 16.8 °C 1015.5 hPa South 6.9 km/h 8.4 km/h 81% 0.0 mm FEW
06:35 20.1 °C 16.9 °C 1015.5 hPa SW 6.9 km/h 7.4 km/h 82% 0.0 mm CLR
06:40 20.1 °C 16.7 °C 1015.5 hPa SSW 5.8 km/h 8.4 km/h 81% 0.0 mm FEW
06:45 20.0 °C 16.8 °C 1015.5 hPa South 5.8 km/h 9.3 km/h 82% 0.0 mm CLR
06:50 20.1 °C 16.7 °C 1015.5 hPa SW 5.8 km/h 7.4 km/h 81% 0.0 mm FEW
06:55 20.1 °C 16.7 °C 1015.5 hPa SSW 5.8 km/h 7.4 km/h 81% 0.0 mm CLR
07:00 20.2 °C 16.8 °C 1015.5 hPa SW 4.7 km/h 7.4 km/h 81% 0.0 mm CLR
07:05 20.2 °C 16.8 °C 1015.8 hPa SSW 4.7 km/h 7.4 km/h 81% 0.0 mm CLR
07:10 20.2 °C 16.6 °C 1015.8 hPa SW 5.8 km/h 7.6 km/h 80% 0.0 mm FEW
07:15 20.2 °C 16.6 °C 1015.8 hPa WSW 5.8 km/h 7.6 km/h 80% 0.0 mm CLR
07:20 20.2 °C 16.6 °C 1015.8 hPa SSW 4.7 km/h 7.4 km/h 80% 0.0 mm FEW
07:25 20.3 °C 16.6 °C 1015.8 hPa SSE 4.7 km/h 5.6 km/h 79% 0.0 mm
07:26 20.3 °C 16.6 °C 1015.8 hPa SSE 4.7 km/h 5.8 km/h 79% 0.0 mm FEW
07:31 20.2 °C 16.4 °C 1015.8 hPa SE 3.9 km/h 7.6 km/h 79% 0.0 mm
07:36 20.2 °C 16.4 °C 1015.8 hPa South 3.9 km/h 7.6 km/h 79% 0.0 mm FEW
07:41 20.2 °C 16.4 °C 1015.8 hPa SSE 5.8 km/h 7.4 km/h 79% 0.0 mm FEW
07:46 20.1 °C 16.3 °C 1015.8 hPa South 5.8 km/h 11.1 km/h 79% 0.0 mm FEW
07:51 20.1 °C 16.3 °C 1015.8 hPa SSW 6.4 km/h 9.3 km/h 79% 0.0 mm
07:56 20.1 °C 16.3 °C 1015.8 hPa SSE 6.4 km/h 9.3 km/h 79% 0.0 mm FEW
08:01 20.1 °C 16.2 °C 1016.1 hPa SSE 5.8 km/h 9.3 km/h 78% 0.0 mm FEW
08:06 20.1 °C 16.2 °C 1016.1 hPa SSE 5.8 km/h 9.3 km/h 78% 0.0 mm FEW
08:11 20.1 °C 16.2 °C 1016.1 hPa South 6.4 km/h 9.5 km/h 78% 0.0 mm
08:16 20.1 °C 16.3 °C 1016.1 hPa South 6.4 km/h 9.3 km/h 79% 0.0 mm
08:21 20.1 °C 16.3 °C 1016.1 hPa SSW 6.9 km/h 11.1 km/h 79% 0.0 mm
08:26 20.1 °C 16.3 °C 1016.1 hPa SSW 6.9 km/h 9.3 km/h 79% 0.0 mm FEW
08:31 20.1 °C 16.3 °C 1016.1 hPa West 6.4 km/h 9.3 km/h 79% 0.0 mm
08:36 20.2 °C 16.4 °C 1016.1 hPa SSW 6.4 km/h 9.5 km/h 79% 0.0 mm
08:41 20.3 °C 16.6 °C 1016.1 hPa SW 5.8 km/h 7.4 km/h 79% 0.0 mm
08:47 20.3 °C 16.3 °C 1016.5 hPa SW 5.8 km/h 9.3 km/h 78% 0.0 mm
08:52 20.4 °C 16.4 °C 1016.5 hPa South 5.0 km/h 9.3 km/h 78% 0.0 mm
08:57 20.5 °C 16.6 °C 1016.5 hPa South 5.0 km/h 9.3 km/h 78% 0.0 mm
09:02 20.5 °C 16.3 °C 1016.5 hPa South 5.8 km/h 10.0 km/h 77% 0.0 mm
09:07 20.4 °C 16.2 °C 1016.5 hPa South 5.8 km/h 9.5 km/h 77% 0.0 mm
09:12 20.5 °C 16.3 °C 1016.5 hPa South 7.6 km/h 7.6 km/h 77% 0.0 mm
09:17 20.6 °C 16.4 °C 1016.5 hPa SSW 7.6 km/h 9.3 km/h 77% 0.0 mm FEW
09:22 20.7 °C 16.5 °C 1016.5 hPa SSW 6.4 km/h 9.3 km/h 77% 0.0 mm FEW
09:27 20.7 °C 16.5 °C 1016.5 hPa SSW 6.4 km/h 8.7 km/h 77% 0.0 mm FEW
09:32 20.7 °C 16.3 °C 1016.8 hPa SW 6.4 km/h 7.4 km/h 76% 0.0 mm FEW
09:37 20.8 °C 16.4 °C 1016.8 hPa SSE 6.4 km/h 9.3 km/h 76% 0.0 mm FEW
09:42 20.8 °C 16.4 °C 1016.8 hPa SSW 5.0 km/h 9.3 km/h 76% 0.0 mm FEW
09:47 20.9 °C 16.5 °C 1016.8 hPa South 5.0 km/h 10.3 km/h 76% 0.0 mm FEW
09:52 20.9 °C 16.5 °C 1016.8 hPa SW 6.4 km/h 7.4 km/h 76% 0.0 mm FEW
09:57 21.1 °C 16.7 °C 1016.8 hPa SE 6.4 km/h 7.4 km/h 76% 0.0 mm FEW
10:02 21.2 °C 16.6 °C 1016.8 hPa SSW 6.4 km/h 9.3 km/h 75% 0.0 mm FEW
10:07 21.2 °C 16.6 °C 1016.8 hPa SSW 6.4 km/h 8.4 km/h 75% 0.0 mm FEW
10:12 21.4 °C 16.8 °C 1016.8 hPa SW 6.4 km/h 9.3 km/h 75% 0.0 mm FEW
10:17 21.6 °C 16.8 °C 1016.8 hPa SW 6.4 km/h 11.1 km/h 74% 0.0 mm
10:22 21.7 °C 16.9 °C 1016.8 hPa SSW 6.4 km/h 9.3 km/h 74% 0.0 mm FEW
10:27 21.9 °C 16.8 °C 1016.8 hPa South 7.6 km/h 11.1 km/h 73% 0.0 mm
10:32 21.9 °C 16.8 °C 1017.2 hPa South 7.6 km/h 11.1 km/h 73% 0.0 mm FEW
10:37 21.9 °C 16.8 °C 1017.2 hPa SSW 7.6 km/h 11.9 km/h 73% 0.0 mm
10:42 21.9 °C 16.6 °C 1017.2 hPa SSE 8.4 km/h 13.0 km/h 72% 0.0 mm
10:47 22.2 °C 16.9 °C 1017.2 hPa South 8.7 km/h 13.0 km/h 72% 0.0 mm FEW
10:52 22.4 °C 16.9 °C 1017.2 hPa SW 8.7 km/h 11.1 km/h 71% 0.0 mm FEW
10:57 22.6 °C 17.1 °C 1017.2 hPa West 7.6 km/h 13.0 km/h 71% 0.0 mm FEW
11:02 22.8 °C 17.3 °C 1016.8 hPa WNW 7.6 km/h 7.6 km/h 71% 0.0 mm FEW
11:07 23.2 °C 17.4 °C 1016.8 hPa SW 4.7 km/h 11.1 km/h 70% 0.0 mm
11:12 23.4 °C 17.4 °C 1016.8 hPa SE 4.7 km/h 4.7 km/h 69% 0.0 mm
11:17 23.8 °C 17.8 °C 1016.8 hPa NE 3.9 km/h 5.8 km/h 69% 0.0 mm
11:22 24.1 °C 17.8 °C 1016.8 hPa ENE 3.9 km/h 5.6 km/h 68% 0.0 mm
11:27 24.2 °C 17.9 °C 1016.8 hPa East 3.2 km/h 5.6 km/h 68% 0.0 mm
11:32 24.1 °C 17.8 °C 1016.8 hPa NNE 3.2 km/h 5.6 km/h 68% 0.0 mm
11:37 24.1 °C 17.8 °C 1016.8 hPa NW 5.0 km/h 9.3 km/h 68% 0.0 mm
11:42 24.1 °C 17.8 °C 1016.8 hPa ESE 5.0 km/h 9.3 km/h 68% 0.0 mm
11:48 24.1 °C 17.8 °C 1016.8 hPa NE 5.0 km/h 7.4 km/h 68% 0.0 mm
11:53 24.2 °C 17.9 °C 1016.8 hPa SW 5.0 km/h 7.4 km/h 68% 0.0 mm
11:58 24.3 °C 18.0 °C 1016.8 hPa NE 3.9 km/h 11.9 km/h 68% 0.0 mm
12:03 24.3 °C 17.8 °C 1017.2 hPa West 3.9 km/h 16.7 km/h 67% 0.0 mm
12:08 24.5 °C 17.7 °C 1017.2 hPa NE 10.0 km/h 18.5 km/h 66% 0.0 mm
12:12 24.5 °C 17.5 °C 1017.2 hPa NE 10.0 km/h 18.5 km/h 65% 0.0 mm
12:17 24.6 °C 17.6 °C 1017.2 hPa NNE 12.2 km/h 24.1 km/h 65% 0.0 mm
12:22 24.7 °C 17.4 °C 1017.2 hPa NNE 12.2 km/h 12.2 km/h 64% 0.0 mm
12:28 24.7 °C 17.4 °C 1017.2 hPa NNE 10.3 km/h 20.4 km/h 64% 0.0 mm
12:33 24.7 °C 17.4 °C 1016.8 hPa NNE 10.3 km/h 24.1 km/h 64% 0.0 mm
12:38 24.8 °C 17.5 °C 1016.8 hPa North 12.2 km/h 12.2 km/h 64% 0.0 mm
12:43 24.8 °C 17.5 °C 1016.8 hPa NE 12.2 km/h 22.2 km/h 64% 0.0 mm
12:48 24.8 °C 17.3 °C 1016.8 hPa NNE 12.2 km/h 18.5 km/h 63% 0.0 mm
12:53 24.9 °C 17.4 °C 1016.8 hPa NE 12.2 km/h 16.7 km/h 63% 0.0 mm
12:58 24.9 °C 17.4 °C 1016.8 hPa WNW 11.1 km/h 20.4 km/h 63% 0.0 mm
13:03 24.8 °C 17.5 °C 1016.8 hPa NE 11.1 km/h 18.5 km/h 64% 0.0 mm
13:08 25.0 °C 17.4 °C 1016.8 hPa NNE 11.9 km/h 19.8 km/h 63% 0.0 mm
13:13 25.1 °C 17.6 °C 1016.8 hPa ENE 11.9 km/h 22.2 km/h 63% 0.0 mm
13:18 25.0 °C 17.4 °C 1016.8 hPa NNE 13.7 km/h 22.2 km/h 63% 0.0 mm
13:23 25.0 °C 17.2 °C 1016.8 hPa NE 13.7 km/h 27.8 km/h 62% 0.0 mm
13:28 24.8 °C 17.0 °C 1016.8 hPa NNW 13.7 km/h 20.4 km/h 62% 0.0 mm
13:33 25.2 °C 17.4 °C 1016.8 hPa NW 13.7 km/h 14.8 km/h 62% 0.0 mm
13:38 25.3 °C 16.7 °C 1016.8 hPa NNE 13.0 km/h 25.9 km/h 59% 0.0 mm
13:43 25.3 °C 16.4 °C 1016.8 hPa NE 13.0 km/h 20.4 km/h 58% 0.0 mm
Murcia-Puente Tocinos, España
Compliments of Weather Underground - 2 mb

La estación de MeteoMurcia.com, publica sus datos en los siguientes proyectos:

Meteoclimatic www.awekas.at

W3Counter
Web Analytics